Date,TemperatureHighF,TemperatureAvgF,TemperatureLowF,DewpointHighF,DewpointAvgF,DewpointLowF,HumidityHigh,HumidityAvg,HumidityLow,PressureMaxIn,PressureMinIn,WindSpeedMaxMPH,WindSpeedAvgMPH,GustSpeedMaxMPH,PrecipitationSumIn
2014-1-1,46.3,41.1,36.4,44.7,38.9,34.1,95,92,89,29.28,28.66,9,2,9,0.31
2014-1-2,45.7,42.7,40.4,43.5,40.1,37.7,94,90,84,29.11,28.66,13,2,13,0.17
2014-1-3,45.9,43.3,40.8,42.2,39.7,36.6,93,87,78,28.95,28.66,25,6,25,0.34
2014-1-4,44.3,39.9,36.7,40.8,37.5,34.0,95,91,86,29.24,28.95,14,2,14,0.09
2014-1-5,45.2,39.8,34.7,43.7,37.7,33.2,95,92,86,29.34,28.83,6,1,6,0.23
2014-1-6,49.2,46.6,41.8,44.5,42.4,38.5,94,85,78,28.89,28.74,18,5,18,0.10
2014-1-7,47.8,46.4,44.5,43.6,42.2,40.9,93,85,78,29.35,28.89,12,4,18,0.06
2014-1-8,49.3,45.4,42.4,43.7,41.9,40.2,93,87,78,29.70,29.34,10,2,10,0.06
2014-1-9,45.2,40.4,36.3,40.5,37.4,33.3,95,89,79,29.66,29.51,5,1,5,0.00
2014-1-10,43.7,40.1,31.2,42.4,38.1,29.6,95,93,88,29.77,29.65,4,0,4,0.13
2014-1-11,40.6,34.5,30.2,36.4,32.4,28.7,97,92,84,30.14,29.77,4,1,4,0.00
2014-1-12,39.0,36.1,31.5,37.1,32.9,30.2,97,88,75,30.14,29.46,6,1,6,0.15
2014-1-13,45.6,39.0,34.9,40.4,37.0,33.6,96,92,81,29.52,29.46,4,1,4,0.29
2014-1-14,38.5,35.9,33.7,36.9,34.7,32.4,96,95,93,29.57,29.40,4,0,4,0.13
2014-1-15,49.1,42.3,36.7,46.7,40.7,35.3,96,94,91,29.40,29.10,7,1,7,0.31
2014-1-16,44.9,40.8,36.2,42.1,39.1,35.2,97,94,88,29.16,29.06,5,1,5,0.06
2014-1-17,42.9,42.0,39.6,41.6,40.5,38.6,96,95,92,29.20,29.01,4,0,4,0.36
2014-1-18,45.0,42.2,40.1,42.7,40.2,37.7,96,92,89,29.24,29.17,6,2,6,0.23
2014-1-19,44.7,42.2,34.0,43.0,40.0,32.5,96,92,86,29.48,29.21,5,1,5,0.20
2014-1-20,46.8,40.7,36.4,43.1,38.5,34.3,95,92,86,29.82,29.47,4,0,4,0.04
2014-1-21,42.1,40.1,36.8,39.4,37.3,35.2,95,90,83,29.80,29.50,4,1,4,0.31
2014-1-22,45.6,42.9,40.7,43.5,40.8,38.7,95,92,85,29.67,29.48,7,1,7,0.17
2014-1-23,42.6,37.7,30.4,40.4,34.8,28.4,94,89,80,29.85,29.51,12,2,12,0.09
2014-1-24,46.4,38.7,31.6,44.1,36.5,29.8,97,92,85,29.86,29.59,8,1,8,0.26
2014-1-25,47.4,42.4,35.7,44.3,39.3,33.0,92,89,84,29.73,29.42,12,3,12,0.13
2014-1-26,43.6,38.7,35.3,40.8,36.0,33.0,94,90,82,29.73,28.88,9,2,9,0.65
2014-1-27,43.6,40.6,37.9,40.4,38.4,34.2,95,92,84,28.97,28.82,13,2,13,0.17
2014-1-28,43.6,41.5,39.3,41.1,39.1,36.2,94,91,87,29.26,28.96,7,2,7,0.09
2014-1-29,44.6,41.5,39.0,41.0,38.9,35.4,94,90,85,29.77,29.26,6,1,6,0.08
2014-1-30,39.4,37.6,36.3,35.6,33.9,31.0,89,86,80,29.77,29.69,4,0,4,0.00
2014-1-31,41.1,38.7,36.6,37.5,35.1,31.0,93,87,79,29.71,28.78,12,2,12,0.07
2014-2-1,42.7,39.2,32.9,40.7,36.1,30.0,94,88,75,28.85,28.47,18,4,18,0.16
2014-2-2,45.5,42.8,41.2,41.0,38.9,36.8,92,86,79,29.52,28.85,16,4,16,0.03
2014-2-3,46.7,44.8,42.4,40.9,38.2,36.1,86,78,73,29.52,29.37,15,4,15,0.00
2014-2-4,44.0,40.2,37.7,38.8,36.0,34.1,90,85,77,29.37,29.06,12,2,12,0.02
2014-2-5,43.4,41.7,39.0,40.5,38.9,36.1,94,90,85,29.05,28.62,9,2,9,0.13
2014-2-6,47.3,41.9,35.9,42.9,39.1,34.1,95,90,79,29.08,28.74,9,1,9,0.02
2014-2-7,46.7,37.9,31.0,40.5,34.8,29.5,97,89,70,29.13,28.84,5,1,5,0.01
2014-2-8,44.5,40.7,37.2,41.5,37.7,34.9,94,89,83,28.84,28.19,17,3,17,0.20
2014-2-9,45.3,42.5,40.2,41.4,38.7,36.2,92,86,77,28.92,28.23,13,4,13,0.09
2014-2-10,45.0,39.4,32.6,40.8,36.6,31.2,96,90,83,29.33,28.92,11,1,11,0.07
2014-2-11,43.5,36.4,33.2,37.7,33.1,30.0,96,88,67,29.31,28.99,10,2,10,0.04
2014-2-12,40.0,36.6,33.6,37.9,33.9,30.8,94,90,85,29.16,28.25,10,2,10,0.24
2014-2-13,41.9,39.4,35.5,39.1,36.3,33.7,94,89,83,29.10,28.44,15,4,15,0.39
2014-2-14,42.5,39.7,34.1,39.5,37.4,32.4,95,91,86,29.23,28.43,14,2,14,0.54
2014-2-15,46.9,41.5,36.5,38.0,36.3,33.6,96,82,66,29.28,28.40,12,4,12,0.02
2014-2-16,46.1,38.3,32.5,37.4,33.2,29.8,92,82,67,29.61,29.29,6,2,7,0.02
2014-2-17,43.2,40.7,36.7,41.6,38.4,34.6,94,91,88,29.64,29.59,6,2,6,0.26
2014-2-18,48.6,44.1,41.3,45.2,42.2,40.0,95,93,86,29.66,29.59,3,0,3,0.09
2014-2-19,44.5,42.6,40.3,43.2,41.0,39.3,96,94,90,29.77,29.42,4,1,4,0.16
2014-2-20,51.3,44.4,38.2,47.2,41.2,35.2,95,89,81,29.42,28.98,17,3,17,0.13
2014-2-21,44.3,41.2,39.0,39.5,37.5,34.9,91,86,80,29.23,29.10,16,4,16,0.06
2014-2-22,47.6,44.4,40.4,45.1,40.7,36.8,91,87,77,29.48,29.20,10,3,12,0.19
2014-2-23,50.4,48.9,46.7,48.1,45.3,41.8,93,87,80,29.41,29.18,22,6,22,0.50
2014-2-24,46.5,43.5,40.4,43.3,40.6,38.6,94,89,81,29.44,29.24,8,1,9,0.32
2014-2-25,49.2,45.3,41.4,42.9,39.6,37.5,89,81,68,29.37,29.10,21,5,21,0.01
2014-2-26,52.1,44.0,40.7,45.6,39.5,36.9,93,84,75,29.64,29.37,12,3,12,0.09
2014-2-27,47.3,40.9,36.3,40.9,37.5,34.0,95,88,73,29.53,29.34,15,2,15,0.27
2014-2-28,47.7,39.4,33.6,41.2,36.5,31.8,95,89,77,29.58,29.47,8,1,8,0.02
2014-3-1,48.0,41.1,35.0,40.0,36.5,32.7,95,84,59,29.57,29.22,9,2,9,0.28
2014-3-2,46.1,41.3,37.8,41.5,38.5,35.1,95,90,74,29.22,28.81,12,1,12,0.38
2014-3-3,49.3,39.8,31.4,40.9,35.9,29.5,97,87,62,29.32,28.81,5,1,5,0.08
2014-3-4,49.2,41.8,31.3,42.6,37.7,29.8,95,86,75,29.78,29.31,13,2,13,0.01
2014-3-5,47.6,44.4,39.6,44.2,41.2,36.6,93,89,83,29.93,29.77,12,2,12,0.16
2014-3-6,49.9,47.7,46.1,48.0,46.1,44.2,96,94,90,29.97,29.74,10,1,10,0.41
2014-3-7,49.4,42.7,33.9,48.6,38.3,31.2,97,85,64,30.25,29.67,18,3,18,0.54
2014-3-8,53.0,44.8,35.7,46.1,39.5,31.9,94,82,72,30.25,29.83,15,3,15,0.13
2014-3-9,49.5,45.7,39.9,45.6,42.2,38.2,94,88,80,30.21,29.85,6,2,8,0.24
2014-3-10,53.6,41.7,33.6,44.4,37.8,32.0,97,87,63,30.58,30.21,5,1,5,0.20
2014-3-11,54.3,40.1,29.9,45.1,35.3,28.6,97,84,64,30.62,30.58,4,0,4,0.01
2014-3-12,57.4,40.8,26.9,43.4,34.9,25.4,96,81,50,30.58,30.41,4,1,4,0.00
2014-3-13,52.7,47.0,38.5,48.2,44.2,36.2,95,90,83,30.45,30.38,5,1,5,0.00
2014-3-14,52.8,47.9,45.7,47.1,43.7,37.7,95,86,72,30.40,30.00,14,4,14,0.00
2014-3-15,53.9,49.5,45.0,49.0,44.6,39.4,89,83,72,30.15,30.10,13,5,13,0.00
2014-3-16,54.4,50.4,45.2,48.1,44.9,40.7,89,82,73,30.15,29.99,12,5,12,0.00
2014-3-17,54.4,49.5,45.6,48.0,44.2,41.0,90,82,68,29.99,29.86,10,4,10,0.01
2014-3-18,53.8,47.8,43.8,47.5,43.5,41.4,94,85,75,29.86,29.60,13,3,13,0.07
2014-3-19,55.0,51.4,48.0,47.5,45.5,42.7,89,80,65,29.84,29.54,18,6,18,0.01
2014-3-20,51.2,44.6,38.6,45.2,40.6,35.0,93,86,76,29.54,29.22,21,5,21,0.59
2014-3-21,46.4,41.5,37.7,38.9,36.8,34.3,92,84,65,29.38,29.18,20,4,20,0.21
2014-3-22,46.6,39.3,33.3,40.4,35.4,31.0,93,86,75,29.39,29.18,13,2,13,0.02
2014-3-23,48.5,40.0,30.6,36.6,30.6,24.2,93,71,43,29.92,29.39,10,2,10,0.00
2014-3-24,53.6,40.2,24.7,34.6,29.4,21.8,91,68,40,29.93,29.62,12,3,12,0.00
2014-3-25,52.0,45.8,42.7,44.4,40.0,33.3,91,80,69,30.16,29.59,7,1,7,0.00
2014-3-26,56.2,44.7,34.6,41.1,35.7,31.1,93,73,41,30.27,30.07,8,1,8,0.00
2014-3-27,51.4,43.5,40.1,43.0,38.5,36.0,91,83,67,30.22,30.01,12,3,12,0.18
2014-3-28,48.0,42.6,38.9,41.2,37.1,34.8,90,81,69,30.27,30.20,14,3,14,0.03
2014-3-29,47.2,43.4,40.8,43.8,40.5,36.7,93,89,82,30.20,30.08,10,4,12,0.21
2014-3-30,46.5,43.9,42.4,43.7,41.8,40.2,95,92,89,30.11,30.03,9,3,9,0.00
2014-3-31,52.0,46.1,43.5,45.7,42.7,40.8,93,88,77,30.07,29.94,10,3,10,0.00
2014-4-1,47.9,45.0,43.9,44.2,42.2,41.4,93,90,85,29.94,29.87,9,2,9,0.27
2014-4-2,47.2,44.5,42.7,42.8,41.6,40.5,93,90,83,29.88,29.72,9,3,10,0.00
2014-4-3,46.5,44.0,42.2,44.3,42.2,40.6,95,94,91,29.73,29.65,8,3,8,0.45
2014-4-4,49.5,46.2,43.2,46.1,43.8,41.9,95,91,84,29.75,29.71,6,1,7,0.54
2014-4-5,54.2,48.7,40.0,52.5,47.0,38.1,96,94,91,29.75,29.64,4,0,4,0.09
2014-4-6,60.4,54.3,50.8,56.2,51.2,49.3,96,89,81,29.65,29.46,16,1,16,0.09
2014-4-21,58.4,57.4,56.8,46.6,45.6,44.7,66,65,63,29.96,29.94,31,20,31,0.09
2014-5-30,61.7,56.2,45.1,53.9,49.5,42.8,92,79,69,30.31,30.29,13,5,13,0.00
2014-5-31,63.0,53.7,43.3,51.9,47.4,41.7,95,80,56,30.29,30.15,15,4,15,0.03
2014-6-1,58.3,56.1,53.7,56.3,53.5,51.5,94,91,83,30.15,29.91,16,9,17,0.35
2014-6-2,57.4,53.7,49.1,55.7,51.7,47.4,96,93,84,29.92,29.88,15,6,15,0.40
2014-6-3,56.9,51.8,46.5,50.6,47.1,43.0,94,85,67,29.89,29.76,16,6,16,0.06
2014-6-4,62.6,53.8,43.4,50.8,46.2,40.9,92,77,58,29.77,29.73,10,2,10,0.00
2014-6-5,59.8,53.0,48.9,56.3,50.3,46.0,93,91,85,29.81,29.73,7,2,8,0.03
2014-6-6,66.4,57.1,52.1,56.8,52.0,49.0,93,83,70,29.92,29.81,12,4,12,0.00
2014-6-7,71.5,60.8,54.6,56.9,53.4,50.5,95,78,48,29.91,29.78,17,4,17,0.51
2014-6-8,66.2,58.2,53.9,55.2,52.9,51.1,94,83,61,29.94,29.79,16,7,16,0.15
2014-6-9,66.7,59.0,55.0,57.9,53.0,51.2,91,81,61,30.00,29.89,16,6,16,0.02
2014-6-10,63.0,57.0,53.1,55.6,52.5,50.1,92,85,74,29.91,29.83,16,7,16,0.05
2014-6-11,59.1,56.0,53.1,55.1,52.6,49.0,93,88,82,30.28,29.89,16,9,16,0.15
2014-6-12,61.8,57.2,54.6,55.1,53.3,51.2,95,87,71,30.29,30.26,15,8,15,0.06
2014-6-13,59.6,57.2,55.7,57.4,55.5,54.3,96,94,90,30.32,30.22,8,3,10,0.27
2014-6-14,62.4,57.8,54.5,57.8,55.1,50.3,97,91,81,30.43,30.32,9,2,9,0.06
2014-6-15,64.3,56.8,48.8,55.3,50.9,46.6,94,81,62,30.51,30.43,6,1,7,0.00
2014-6-16,65.7,57.3,49.9,60.5,54.2,46.8,94,89,82,30.51,30.47,6,1,6,0.00
2014-6-17,67.4,60.3,52.8,61.7,57.3,51.7,97,90,79,30.48,30.43,12,3,12,0.00
2014-6-18,63.8,57.2,52.1,58.4,54.2,50.8,97,90,76,30.43,30.35,8,2,8,0.01
2014-6-19,60.6,55.6,51.5,53.4,51.2,49.3,94,85,75,30.37,30.30,6,2,6,0.02
2014-6-20,60.4,54.5,50.4,55.2,51.8,48.6,96,91,79,30.30,30.18,10,2,10,0.06
2014-6-21,62.6,56.5,51.2,56.2,53.1,49.5,95,88,76,30.19,30.12,7,3,7,0.01
2014-6-22,60.7,56.3,52.0,56.2,53.5,50.0,94,90,81,30.22,30.17,14,5,14,0.01
2014-6-23,63.0,57.5,54.9,57.8,54.5,52.6,95,90,81,30.23,30.20,14,4,14,0.01
2014-6-24,62.7,57.6,53.9,59.8,55.5,51.6,96,93,87,30.22,30.11,6,1,6,0.13
2014-6-25,64.2,57.9,54.5,57.8,54.3,51.2,95,88,76,30.11,30.03,12,4,12,0.04
2014-6-26,69.6,60.5,53.0,56.9,51.3,46.3,94,73,54,30.04,29.96,18,5,18,0.00
2014-6-27,60.2,54.8,48.3,46.3,44.3,41.9,83,68,55,30.01,29.98,17,7,17,0.00
2014-6-28,61.1,53.8,47.0,47.3,44.3,39.1,86,71,54,30.02,29.98,12,4,12,0.00
2014-6-29,60.4,54.0,44.0,48.9,45.6,40.4,91,74,58,30.05,30.02,7,2,7,0.00
2014-6-30,65.3,56.5,50.9,55.7,50.8,46.0,90,82,68,30.13,30.02,8,1,8,0.00
2014-7-1,69.0,58.3,46.1,58.4,51.3,44.2,96,79,57,30.17,30.06,12,3,12,0.00
2014-7-2,61.4,57.4,53.2,55.4,51.1,46.8,93,80,70,30.06,29.80,27,12,37,0.24
2014-7-3,61.6,56.0,52.6,55.4,51.7,47.8,94,86,74,29.90,29.57,22,12,22,0.31
2014-7-4,59.5,56.3,52.5,55.8,52.8,48.0,96,88,73,29.56,29.29,28,10,28,1.50
2014-7-5,60.7,54.8,48.0,51.5,48.9,44.9,91,81,66,29.51,29.44,18,7,18,0.02
2014-7-6,60.3,55.3,49.9,52.4,49.8,47.2,92,82,68,29.63,29.51,18,8,18,0.10
2014-7-7,59.8,55.2,51.5,54.2,50.7,48.3,92,85,74,29.95,29.63,15,8,15,0.25
2014-7-8,63.8,56.5,51.8,56.0,51.7,48.7,92,84,71,30.21,29.95,10,3,10,0.03
2014-7-9,66.2,57.9,48.1,56.0,52.2,46.7,96,82,64,30.24,30.21,12,3,12,0.00
2014-7-10,68.9,59.9,47.7,58.7,52.5,45.7,94,77,58,30.21,30.08,9,2,9,0.00
2014-7-11,66.0,58.8,50.4,58.2,53.9,47.7,95,84,71,30.08,29.95,15,6,15,0.09
2014-7-12,62.5,58.9,56.2,59.2,56.6,54.0,95,92,85,29.95,29.66,16,6,16,0.73
2014-7-13,61.5,56.8,53.3,55.2,52.6,50.0,96,86,70,29.81,29.67,14,6,14,0.04
2014-7-14,59.2,55.8,54.0,57.6,53.3,50.3,96,91,83,29.81,29.52,25,11,25,0.35
2014-7-15,61.2,57.0,53.3,54.1,51.8,48.2,95,83,63,30.03,29.77,13,7,13,0.00
2014-7-16,60.9,56.9,54.3,58.0,54.2,49.4,96,91,81,29.99,29.80,22,11,22,0.43
2014-7-17,66.7,59.7,54.4,58.3,54.4,51.4,93,83,67,30.14,29.99,13,4,15,0.00
2014-7-18,73.4,64.8,52.7,60.4,55.4,49.8,92,73,56,30.12,29.86,21,6,21,0.00
2014-7-19,72.0,64.3,59.4,61.2,58.0,54.4,96,80,66,29.87,29.73,18,4,18,0.24
2014-7-20,63.9,60.0,58.6,60.1,58.1,57.1,96,94,86,29.99,29.74,14,4,14,0.05
2014-7-21,69.1,62.6,55.6,59.5,56.4,53.7,96,81,62,30.15,29.99,13,3,13,0.01
2014-7-22,76.2,67.4,60.0,64.9,60.2,55.2,89,78,66,30.27,30.15,12,3,12,0.00
2014-7-23,78.3,71.1,62.9,65.5,61.5,59.1,89,73,58,30.26,30.15,13,5,13,0.00
2014-7-24,80.8,72.1,62.6,63.6,60.1,57.1,87,68,46,30.17,30.14,12,3,12,0.00
2014-7-25,79.3,69.2,59.1,65.5,60.4,54.9,88,74,55,30.16,30.05,9,2,9,0.00
2014-7-26,66.3,61.8,56.4,61.3,57.5,53.9,95,86,70,30.05,29.95,15,4,15,0.65
2014-7-27,66.5,59.6,55.8,61.1,56.4,53.6,95,89,74,30.02,29.87,12,4,12,0.13
2014-7-28,64.9,59.9,56.4,59.9,56.5,53.8,96,89,80,30.08,30.00,13,3,13,0.02
2014-7-29,61.5,57.1,55.0,57.4,54.8,53.0,95,92,82,30.00,29.85,15,8,15,0.32
2014-7-30,58.9,56.3,54.1,55.2,53.7,52.2,95,91,80,29.85,29.78,13,7,13,0.16
2014-7-31,64.2,56.8,54.1,59.0,54.3,52.2,96,91,77,29.82,29.70,9,2,9,0.39
2014-8-1,64.1,57.5,52.4,56.2,53.4,50.3,95,87,65,29.70,29.62,12,4,12,0.03
2014-8-2,63.2,56.9,52.0,56.4,53.4,50.0,94,88,75,29.68,29.60,18,5,18,0.17
2014-8-3,66.5,59.2,55.0,60.6,56.1,53.3,95,90,75,29.59,29.48,15,5,15,0.39
2014-8-4,60.3,56.2,51.6,55.6,52.8,49.2,96,89,71,29.95,29.55,17,6,20,0.06
2014-8-5,67.1,59.4,51.3,59.0,54.1,47.6,93,83,70,29.95,29.83,20,6,20,0.09
2014-8-6,64.7,59.5,55.1,59.2,56.3,51.8,94,89,72,29.83,29.73,12,5,12,0.14
2014-8-7,63.2,57.5,50.9,55.8,52.4,48.2,91,84,70,29.88,29.80,18,7,18,0.04
2014-8-8,62.2,56.8,53.5,55.0,53.1,50.6,92,87,72,29.87,29.59,20,7,20,0.16
2014-8-9,62.7,58.0,54.1,55.2,52.9,51.2,93,84,73,29.59,29.51,18,8,18,0.07
2014-8-10,62.2,56.0,51.8,55.4,52.5,50.1,95,88,74,29.53,29.38,12,2,12,0.39
2014-8-11,55.0,53.1,51.5,53.9,51.5,49.8,96,94,93,29.38,29.29,21,7,25,1.00
2014-8-12,57.9,54.7,52.9,55.3,53.3,51.8,96,95,90,29.44,29.31,12,5,12,1.03
2014-8-13,61.1,55.5,52.6,57.8,53.9,51.2,97,94,88,29.71,29.45,6,3,6,0.09
2014-8-14,63.1,55.2,51.2,55.4,51.6,49.3,96,88,70,29.98,29.71,7,2,7,0.00
2014-8-15,58.4,54.0,48.1,52.0,48.9,46.5,95,83,69,30.09,29.99,17,3,17,0.00
2014-8-16,59.4,54.9,52.2,56.9,52.1,50.0,95,90,82,30.00,29.61,22,11,22,0.26
2014-8-17,55.9,53.0,50.7,54.2,51.1,48.6,96,93,90,29.79,29.49,15,6,16,0.49
2014-8-18,55.9,50.0,44.5,49.7,46.4,42.3,92,88,70,29.91,29.79,15,4,15,0.06
2014-8-19,57.8,49.3,41.5,50.2,45.4,40.0,96,87,69,30.05,29.88,8,2,8,0.04
2014-8-20,54.4,50.0,44.3,51.0,47.3,41.9,94,91,81,30.05,29.81,22,4,22,0.37
2014-8-21,57.7,52.7,47.8,53.1,49.3,45.1,96,88,74,29.83,29.66,15,5,15,0.28
2014-8-22,58.6,50.5,44.4,50.0,46.5,42.5,96,87,68,29.94,29.83,9,2,9,0.06
2014-8-23,56.8,49.8,42.0,50.6,46.3,40.4,95,88,76,30.04,29.94,7,2,7,0.06
2014-8-24,60.0,51.2,41.3,49.5,44.6,38.6,93,79,58,30.04,29.92,10,3,10,0.00
2014-8-25,63.7,54.9,43.2,47.7,45.2,39.9,91,71,51,29.92,29.72,15,5,15,0.00
2014-8-26,65.8,55.3,46.3,53.6,47.4,42.5,88,76,57,29.99,29.80,12,2,12,0.00
2014-8-27,66.6,57.1,46.7,52.3,47.1,43.3,89,70,49,30.00,29.68,18,4,18,0.00
2014-8-28,61.9,58.7,55.4,57.9,52.9,46.4,93,81,67,29.68,29.44,23,10,23,0.17
2014-8-29,64.1,58.1,54.9,57.8,54.7,52.1,95,89,78,29.59,29.35,18,6,18,0.23
2014-8-30,57.6,55.3,54.0,55.2,53.1,52.3,95,93,88,29.95,29.59,13,4,13,0.00
2014-8-31,63.0,56.8,51.1,55.9,53.2,49.4,96,88,71,29.97,29.81,23,7,23,0.22
2014-9-1,59.4,56.9,54.2,55.0,52.6,49.5,91,86,76,30.17,29.92,17,7,17,0.00
2014-9-2,60.2,55.9,54.3,54.5,52.3,50.9,93,88,80,30.22,30.17,16,6,16,0.02
2014-9-3,60.9,56.8,53.4,54.6,52.4,48.9,92,85,75,30.21,30.14,13,4,13,0.14
2014-9-4,65.8,60.4,55.8,58.3,55.5,49.4,94,84,72,30.14,30.05,20,6,20,0.01
2014-9-5,63.1,56.0,48.0,54.8,51.4,44.8,96,85,68,30.10,30.05,6,1,6,0.12
2014-9-6,57.4,51.9,46.4,54.7,49.5,43.2,95,92,85,30.08,30.00,9,2,9,0.17
2014-9-7,56.5,52.8,50.0,51.7,48.6,46.3,95,86,71,30.13,30.05,8,2,8,0.01
2014-9-8,61.2,54.8,46.9,53.2,50.0,45.3,95,84,71,30.19,30.11,5,1,5,0.01
2014-9-9,60.4,54.5,48.4,53.3,50.9,46.5,94,88,71,30.19,30.15,12,4,12,0.00
2014-9-10,65.5,56.4,49.6,54.2,50.6,46.8,94,82,64,30.18,30.14,12,3,12,0.00
2014-9-11,65.2,56.6,48.3,58.1,52.5,46.0,94,86,75,30.25,30.15,6,1,6,0.00
2014-9-12,67.2,58.1,49.1,58.7,53.7,47.3,96,86,71,30.33,30.23,12,2,12,0.00
2014-9-13,65.8,58.8,53.2,59.3,54.5,50.3,93,86,77,30.39,30.33,6,1,6,0.00
2014-9-14,65.8,58.6,54.2,57.3,52.6,49.5,92,81,63,30.38,30.29,15,3,15,0.00
2014-9-15,67.0,57.9,49.2,55.1,51.0,46.0,90,78,59,30.30,30.10,14,3,14,0.00
2014-9-16,66.3,59.3,53.7,58.5,55.0,51.2,93,86,72,30.10,30.00,15,3,15,0.00
2014-9-17,69.7,60.5,53.8,60.4,55.2,50.3,94,83,65,30.04,29.96,8,2,8,0.00
2014-9-18,67.8,58.0,50.5,59.5,54.3,48.8,95,88,72,29.97,29.92,7,2,7,0.00
2014-9-19,60.8,55.8,53.7,58.9,54.1,50.5,97,94,88,30.07,29.91,7,2,7,0.00
2014-9-20,62.2,54.6,49.2,55.1,50.5,47.3,95,86,68,30.30,30.07,9,2,10,0.00
2014-9-21,61.6,53.7,45.9,52.0,48.4,43.9,95,83,62,30.35,30.29,9,2,9,0.00
2014-9-22,57.8,53.4,49.4,55.8,51.0,46.8,96,91,79,30.30,30.09,18,4,18,0.32
2014-9-23,58.2,53.4,49.0,53.7,50.8,47.1,96,91,83,30.10,29.82,20,6,20,0.32
2014-9-24,58.7,52.8,48.2,52.5,48.6,46.1,96,86,71,29.95,29.83,17,4,17,0.15
2014-9-25,58.8,57.4,54.7,57.5,55.8,52.6,97,94,89,29.83,29.72,34,15,35,0.61
2014-9-26,57.6,54.3,49.9,55.4,48.7,43.7,93,82,70,30.10,29.69,30,14,30,0.06
2014-9-27,59.5,56.3,53.7,56.6,51.7,48.4,90,85,74,30.10,29.96,29,14,29,0.04
2014-9-28,59.6,56.5,50.9,56.7,53.2,48.4,94,89,78,30.06,29.96,36,8,37,0.20
2014-9-29,60.9,56.9,51.5,56.0,52.8,49.0,95,86,71,30.08,29.96,22,6,22,0.16
2014-9-30,59.2,57.6,54.3,57.7,55.6,52.1,95,93,89,29.96,29.86,24,12,24,0.62
2014-10-1,57.5,53.1,48.6,55.0,47.0,43.1,95,80,63,30.26,29.85,23,12,23,0.20
2014-10-2,57.0,54.5,51.0,52.3,48.7,45.4,90,81,70,30.27,29.70,29,14,29,0.06
2014-10-3,56.8,51.8,45.1,54.6,46.0,40.3,94,81,66,29.82,29.59,37,12,37,0.61
2014-10-4,54.7,48.7,41.0,45.7,42.9,37.9,92,81,65,29.86,29.71,20,6,20,0.02
2014-10-5,55.0,52.7,50.8,50.6,48.5,43.6,92,86,74,29.84,29.43,33,15,33,0.25
2014-10-6,55.5,48.6,42.5,49.0,45.3,39.0,95,89,71,29.44,29.10,43,14,43,0.50
2014-10-7,52.0,45.6,39.3,48.4,42.7,36.9,94,90,84,29.44,29.26,9,1,9,0.29
2014-10-8,56.9,49.3,42.0,49.8,46.0,39.6,95,89,71,29.32,29.16,12,1,12,0.17
2014-10-9,55.9,49.4,41.4,48.2,45.0,39.8,95,85,71,29.44,29.16,8,3,8,0.00
2014-10-10,55.7,46.2,40.6,49.7,44.1,39.3,96,92,76,29.69,29.44,5,1,5,0.02
2014-10-11,53.9,48.0,42.9,49.5,45.5,41.2,96,91,81,29.83,29.69,10,2,10,0.24
2014-10-12,56.1,47.4,41.9,48.4,43.9,39.2,96,88,68,29.96,29.83,6,1,6,0.00
2014-10-13,51.4,45.6,40.0,43.4,40.4,37.6,94,82,68,29.99,29.94,10,3,12,0.00
2014-10-14,51.9,46.8,38.6,42.7,39.6,35.6,90,76,59,29.99,29.86,14,6,14,0.00
2014-10-15,55.3,48.6,41.5,43.6,39.8,35.9,83,72,60,29.86,29.55,21,8,21,0.00
2014-10-16,58.3,54.0,48.5,48.3,45.4,39.8,79,73,68,29.55,29.45,26,16,26,0.00
2014-10-17,61.0,57.5,53.8,53.6,51.2,47.8,87,80,74,29.57,29.30,25,12,25,0.24
2014-10-18,60.8,58.8,56.9,56.6,53.7,52.1,92,83,77,29.33,29.21,26,15,26,0.11
2014-10-19,58.0,53.6,50.9,52.7,49.8,44.3,94,87,76,29.62,29.14,31,16,31,0.64
2014-10-20,55.2,52.4,49.2,51.9,49.2,45.4,92,89,80,29.65,29.13,29,14,29,0.43
2014-10-21,55.1,48.2,43.8,53.1,45.4,40.6,94,90,83,29.98,28.95,22,10,22,1.12
2014-10-22,54.1,51.9,46.7,52.7,49.1,41.9,95,90,78,30.01,29.73,38,14,38,2.20
2014-10-23,54.1,52.0,46.9,52.7,49.8,43.0,95,92,81,29.73,29.54,27,14,27,0.62
2014-10-24,51.2,49.0,45.6,46.2,43.7,39.9,91,82,75,29.63,29.55,24,14,25,0.28
2014-10-25,53.2,51.1,48.2,47.9,46.1,43.5,91,83,76,29.58,29.43,35,20,35,0.46